Showing default

HUYGENS, 55093

Orbit data source: Space-Track

HUYGENS, 55093 is a Norwegian payload satellite in SSO that was launched on Tue, 03 Jan 2023 UTC via an FALCON 9 launch vehicle from the Air Force Eastern Test Range (AFETR). Payload-class satellites include a variety of spacecraft equipped with specific instruments for various scientific and technological missions. These include communications satellites like Starlink; space stations such as the ISS; scientific satellites like the Hubble; Earth observation satellites from companies like Planet Labs, Umbra, and HawkEye 360; GPS; miniature CubeSats for education and research; and military/defense satellites.

Loading next visibility...
Identifier
55093, 2023-001CN
Orbit
SSO
Country
Flag of NONO / NOR
Related business
Manufacturer
NanoAvionics
Mission
Operational Civil Sigint
Bus & Motor
CUBESAT 6U, Unknown motor
Mass
10 kg wet, ~10 kg dry
Launch date (UTC)
2023-01-03 (3 years ago)
Launch vehicle
FALCON 9
Launch site
Air Force Eastern Test Range (AFETR)
Object type
Payload
Rocket body
Debris
Shape & HBR
Box + 2 Pan, 0.1 m
Radar Cross Section
0.080 m², Medium (>0.1 m² and < 1m²)

Expand to show TLE details & history
Last TLE update: 5 hours ago

TLE from 5 hours ago
0 HUYGENS
1 55093U 23001CN  26101.26183950  .00008417  00000-0  22052-3 0  9996
2 55093  97.3299 168.4211 0008434 333.1084  26.9723 15.38912865182072
Epoch: 2026-04-11T06:17Z
TLE epoch observation values (Epoch: 2026-04-11T06:17:02.932Z)
Latitude
-0.00008°
Longitude
-125.32478°
Altitude
447.309 km
Speed
7.647 km/s
True Right ascension
11h 13m 41s
True Declination
0° 00' 00"
Sunlit
Object was in full shadow at epoch
Visualization orbit readout
Latitude
Unknown
Longitude
Unknown
Altitude
Unknown
Speed
Unknown
Apparent Right ascension
Unknown
Apparent Declination
Unknown
Sunlit
N/A
Visualization observer readout
Local Sidereal Time
17:40:46
Azimuth
Unknown
Elevation
Unknown
Doppler factor
Unknown
Orbital elements
Apogee altitude
452.016 km
Perigee altitude
440.505 km
Semi-major axis
6,824.397 km
Eccentricity
0.00084
Inclination
97.3299°
RAAN
168.4211°
Arg. of periapsis
333.1084°
True anomaly
27.01618°
Mean anomaly
26.9723°
Eccentric anomaly
26.99423°
Mean motion
3.84988 °/min
Orbital period
93.51 mins
BSTAR
0.00022052
Loading maneuver chart data...
Computing Atmospheric mass density...

Documentation

Showing up to 5 results
|